User: anonymous   Login
Location: C�an Torras
(41.5052°N, 1.9280°E)
Time: 21:29:53
(UTC+00:00)
Language:

Cosmos 783 Rocket - Orbit

View from above orbital plane
View from above orbital plane
View from above satellite
View from above satellite

Ground track
Ground track

The orbit data is extracted from the following two-line orbital elements,

1 08459U 75112B   21104.31824846  .00000004  00000-0  10343-4 0  9995
2 08459  74.0617  67.7868 0017211 248.5652 111.3666 14.36837511374635
Epoch (UTC): 14 April 2021 07:38:16
Eccentricity: 0.0017211
inclination: 74.0617°
perigee height: 756 km
apogee height: 781 km
right ascension of ascending node: 67.7868°
argument of perigee: 248.5652°
revolutions per day: 14.36837511
mean anomaly at epoch: 111.3666°
orbit number at epoch: 37463

The dashed part of the orbit path shows where the satellite is in the earth's shadow,  

DLR